When you browse on this site, cookies collect data to enhance your experience and personalize the content and advertising you see.
Visit our Privacy Policy to learn more. By continuing to use the site, you agree to this use of cookies and data.
  • In Belgium
  • List of Countries
  • For 7 days
  • Water Temperature
  • Satellite Maps
  • Weather Map
  • Weather Widgets
  • user-avatar
    Login

    Hourly Weather Rakoszyce

    Today, 24 January, Thursday

    Time Temperature Precipitation Wind Pressure Humidity
    00:00 -7°C° 0 mm 5 mps 742 mmHg 69%
    01:00 -8°C° 0 mm 4 mps 742 mmHg 71%
    02:00 -8°C° 0 mm 4 mps 742 mmHg 72%
    03:00 -8°C° 0 mm 4 mps 742 mmHg 72%
    04:00 -8°C° 0 mm 4 mps 743 mmHg 73%
    05:00 -8°C° 0 mm 4 mps 743 mmHg 73%
    06:00 -8°C° 0 mm 4 mps 743 mmHg 73%
    07:00 -7°C° 0 mm 3 mps 744 mmHg 71%
    08:00 -8°C° 0 mm 4 mps 744 mmHg 69%
    09:00 -8°C° 0 mm 4 mps 744 mmHg 68%
    10:00 -8°C° 0 mm 4 mps 744 mmHg 67%
    11:00 -8°C° 0 mm 4 mps 745 mmHg 65%
    12:00 -7°C° 0 mm 4 mps 745 mmHg 63%
    13:00 -7°C° 0 mm 4 mps 745 mmHg 61%
    14:00 -7°C° 0 mm 4 mps 745 mmHg 63%
    15:00 -7°C° 0 mm 4 mps 745 mmHg 64%
    16:00 -7°C° 0 mm 4 mps 745 mmHg 66%
    17:00 -7°C° 0 mm 4 mps 745 mmHg 67%
    18:00 -6°C° 0 mm 3 mps 745 mmHg 67%
    19:00 -6°C° 0 mm 3 mps 745 mmHg 68%
    20:00 -6°C° 0 mm 3 mps 745 mmHg 68%
    21:00 -6°C° 0 mm 3 mps 745 mmHg 69%
    22:00 -5°C° 0 mm 2 mps 746 mmHg 69%
    23:00 -5°C° 0 mm 2 mps 746 mmHg 70%

    Tomorrow, 25 January, Friday

    Time Temperature Precipitation Wind Pressure Humidity
    00:00 -6°C° 0 mm 2 mps 746 mmHg 71%
    01:00 -6°C° 0 mm 2 mps 746 mmHg 71%
    02:00 -6°C° 0 mm 2 mps 746 mmHg 72%
    03:00 -6°C° 0 mm 2 mps 746 mmHg 73%
    04:00 -6°C° 0 mm 2 mps 746 mmHg 74%
    05:00 -6°C° 0 mm 2 mps 746 mmHg 75%
    06:00 -6°C° 0 mm 2 mps 746 mmHg 76%
    07:00 -4°C° 0 mm 1 mps 746 mmHg 77%
    08:00 -6°C° 0 mm 2 mps 746 mmHg 76%
    09:00 -6°C° 0 mm 2 mps 747 mmHg 74%
    10:00 -6°C° 0 mm 2 mps 747 mmHg 73%
    11:00 -6°C° 0 mm 3 mps 747 mmHg 70%
    12:00 -6°C° 0 mm 3 mps 747 mmHg 67%
    13:00 -5°C° 0 mm 3 mps 747 mmHg 64%
    14:00 -5°C° 0 mm 3 mps 747 mmHg 63%
    15:00 -5°C° 0 mm 3 mps 747 mmHg 63%
    16:00 -5°C° 0 mm 3 mps 747 mmHg 62%
    17:00 -6°C° 0 mm 3 mps 747 mmHg 63%
    18:00 -5°C° 0 mm 2 mps 747 mmHg 65%
    19:00 -3°C° 0 mm 1 mps 747 mmHg 67%
    20:00 -6°C° 0 mm 2 mps 747 mmHg 67%
    21:00 -6°C° 0 mm 2 mps 747 mmHg 68%
    22:00 -7°C° 0 mm 3 mps 746 mmHg 68%
    23:00 -6°C° 0 mm 3 mps 746 mmHg 68%

    Day after tomorrow, 26 January, Saturday

    Time Temperature Precipitation Wind Pressure Humidity
    00:00 -6°C° 0 mm 3 mps 745 mmHg 68%
    01:00 -6°C° 0 mm 3 mps 745 mmHg 68%
    02:00 -6°C° 0 mm 3 mps 744 mmHg 70%
    03:00 -5°C° 0 mm 4 mps 743 mmHg 71%
    04:00 -5°C° 0 mm 4 mps 742 mmHg 72%
    05:00 -4°C° 0.6 mm 4 mps 741 mmHg 76%
    06:00 -4°C° 0.6 mm 4 mps 740 mmHg 81%
    07:00 -3°C° 0.6 mm 4 mps 739 mmHg 85%
    08:00 -2°C° 0.6 mm 4 mps 738 mmHg 85%
    09:00 -2°C° 0.6 mm 5 mps 738 mmHg 84%
    10:00 -1°C° 0.6 mm 5 mps 737 mmHg 84%
    11:00 0°C° 0.6 mm 5 mps 737 mmHg 87%
    12:00 0°C° 0.6 mm 4 mps 736 mmHg 89%
    13:00 0°C° 0.6 mm 4 mps 736 mmHg 92%
    14:00 0°C° 0 mm 4 mps 736 mmHg 93%
    15:00 +1°C° 0 mm 3 mps 736 mmHg 94%
    16:00 0°C° 0 mm 3 mps 737 mmHg 95%
    17:00 0°C° 0 mm 3 mps 737 mmHg 94%
    18:00 0°C° 0 mm 3 mps 737 mmHg 94%
    19:00 0°C° 0 mm 3 mps 738 mmHg 93%
    20:00 0°C° 0.1 mm 3 mps 738 mmHg 93%
    21:00 0°C° 0.1 mm 3 mps 738 mmHg 93%
    22:00 +1°C° 0.1 mm 2 mps 738 mmHg 93%
    23:00 +1°C° 0.1 mm 2 mps 738 mmHg 93%

    27 January, Sunday

    Time Temperature Precipitation Wind Pressure Humidity
    00:00 +1°C° 0.1 mm 2 mps 738 mmHg 93%
    01:00 +2°C° 0.1 mm 1 mps 737 mmHg 93%
    02:00 +1°C° 0.1 mm 2 mps 737 mmHg 92%
    03:00 +1°C° 0.1 mm 2 mps 736 mmHg 92%
    04:00 +1°C° 0.1 mm 2 mps 736 mmHg 92%
    05:00 +1°C° 0.2 mm 3 mps 735 mmHg 92%
    06:00 +1°C° 0.2 mm 3 mps 735 mmHg 93%
    07:00 +1°C° 0.2 mm 3 mps 735 mmHg 93%
    08:00 +1°C° 0.1 mm 3 mps 734 mmHg 92%
    09:00 +1°C° 0.1 mm 4 mps 734 mmHg 91%
    10:00 +1°C° 0.1 mm 4 mps 733 mmHg 90%
    11:00 +1°C° 0 mm 4 mps 733 mmHg 89%
    12:00 +3°C° 0 mm 4 mps 733 mmHg 88%
    13:00 +3°C° 0 mm 4 mps 732 mmHg 88%
    14:00 +3°C° 0 mm 3 mps 732 mmHg 88%
    15:00 +2°C° 0 mm 3 mps 732 mmHg 88%
    16:00 +2°C° 0 mm 3 mps 732 mmHg 89%
    17:00 +2°C° 0.3 mm 3 mps 731 mmHg 89%
    18:00 +1°C° 0.3 mm 4 mps 731 mmHg 88%
    19:00 +1°C° 0.3 mm 4 mps 731 mmHg 88%
    20:00 0°C° 0.1 mm 4 mps 731 mmHg 88%
    21:00 0°C° 0.1 mm 4 mps 731 mmHg 87%
    22:00 +1°C° 0.1 mm 3 mps 731 mmHg 86%
    23:00 +1°C° 0 mm 3 mps 731 mmHg 87%

    28 January, Monday

    Time Temperature Precipitation Wind Pressure Humidity
    00:00 +1°C° 0 mm 3 mps 731 mmHg 87%
    01:00 0°C° 0 mm 3 mps 730 mmHg 87%
    02:00 0°C° 0 mm 3 mps 730 mmHg 88%
    03:00 0°C° 0 mm 3 mps 730 mmHg 88%
    04:00 0°C° 0 mm 3 mps 730 mmHg 88%
    05:00 0°C° 0 mm 3 mps 730 mmHg 88%
    06:00 0°C° 0 mm 3 mps 730 mmHg 88%
    07:00 0°C° 0 mm 3 mps 730 mmHg 88%
    08:00 +1°C° 0.1 mm 3 mps 730 mmHg 87%
    09:00 +1°C° 0.1 mm 3 mps 730 mmHg 86%
    10:00 +1°C° 0.1 mm 3 mps 731 mmHg 86%
    11:00 +2°C° 0.1 mm 3 mps 730 mmHg 85%
    12:00 +3°C° 0.1 mm 3 mps 730 mmHg 84%
    13:00 +3°C° 0.1 mm 3 mps 730 mmHg 83%
    14:00 +4°C° 0 mm 2 mps 730 mmHg 84%
    15:00 +3°C° 0 mm 2 mps 730 mmHg 86%
    16:00 +2°C° 0 mm 2 mps 730 mmHg 87%
    17:00 +2°C° 0 mm 2 mps 730 mmHg 87%
    18:00 +2°C° 0 mm 2 mps 731 mmHg 88%
    19:00 +1°C° 0 mm 2 mps 731 mmHg 88%
    20:00 -1°C° 0.1 mm 4 mps 732 mmHg 88%
    21:00 0°C° 0.1 mm 5 mps 732 mmHg 88%
    22:00 -1°C° 0.1 mm 6 mps 733 mmHg 88%
    23:00 -2°C° 0.1 mm 7 mps 734 mmHg 87%

    29 January, Tuesday

    Time Temperature Precipitation Wind Pressure Humidity
    00:00 -2°C° 0.1 mm 8 mps 734 mmHg 86%
    01:00 -2°C° 0.1 mm 8 mps 735 mmHg 85%
    02:00 -4°C° 0.1 mm 8 mps 736 mmHg 83%
    03:00 -4°C° 0.1 mm 8 mps 737 mmHg 82%
    04:00 -5°C° 0.1 mm 8 mps 738 mmHg 80%
    05:00 -5°C° 0 mm 8 mps 739 mmHg 79%
    06:00 -6°C° 0 mm 7 mps 740 mmHg 78%
    07:00 -6°C° 0 mm 7 mps 741 mmHg 77%
    08:00 -6°C° 0 mm 7 mps 741 mmHg 75%
    09:00 -6°C° 0 mm 7 mps 742 mmHg 74%
    10:00 -6°C° 0 mm 7 mps 743 mmHg 72%
    11:00 -4°C° 0 mm 6 mps 743 mmHg 70%
    12:00 -2°C° 0 mm 5 mps 743 mmHg 69%
    13:00 -1°C° 0 mm 4 mps 743 mmHg 67%
    14:00 -2°C° 0 mm 4 mps 743 mmHg 69%
    15:00 -1°C° 0 mm 3 mps 743 mmHg 71%
    16:00 -1°C° 0 mm 3 mps 743 mmHg 73%
    17:00 -2°C° 0 mm 3 mps 743 mmHg 75%
    18:00 -2°C° 0 mm 3 mps 743 mmHg 77%
    19:00 -4°C° 0 mm 3 mps 743 mmHg 78%
    20:00 -4°C° 0 mm 3 mps 743 mmHg 78%
    21:00 -4°C° 0 mm 3 mps 743 mmHg 78%
    22:00 -4°C° 0 mm 3 mps 743 mmHg 78%
    23:00 -4°C° 0 mm 3 mps 742 mmHg 78%
    Show more